Location: *
(34.8620°S, 39.3380°E)
Time: 19:45:53
(UTC+00:00)

CZ-4B DEB - Visible Passes

Search period start: 01 December 2021 00:00
Search period end: 11 December 2021 00:00
Orbit: 840 x 861 km, 99.1° (Epoch: 01 December)

Date Brightness Start Highest point End Pass type
(mag) Time Alt. Az. Time Alt. Az. Time Alt. Az.
01 Dec 7.2 17:22:00 10° SSW 17:25:30 17° WSW 17:28:58 10° WNW visible
02 Dec 7.1 17:09:38 10° SSW 17:13:48 22° WSW 17:17:57 10° WNW visible
03 Dec 6.7 16:57:25 10° S 17:02:05 28° WSW 17:06:44 10° WNW visible
04 Dec 6.2 16:45:19 10° S 16:50:21 35° WSW 16:55:21 10° NW visible
08 Dec 7.6 17:41:08 10° SW 17:43:02 12° WSW 17:44:56 10° W visible
09 Dec 7.3 17:28:15 10° SSW 17:31:23 15° WSW 17:34:29 10° W visible
10 Dec 8.0 01:33:18 10° ESE 01:34:16 10° ESE 01:35:14 10° SE visible
10 Dec 7.1 17:15:48 10° SSW 17:19:41 20° WSW 17:23:35 10° WNW visible
